Simultaneous Nadir Overpasses (SNOs) Predictions

Prediction of SNOs between GOES-16 and METOP-B Satellite Orbit:

Table of predicted SNOs for the next 14.0 days since TLE Epoch: 3/10/2017
Index Date Time (GOES-16) GOES-16 Lat,Lon METOP-B Lat,Lon Distance(km) Time Diff (sec)
1 03/11/2017 15:42:32 0.02, -89.50 0.76, -92.95 391.87 80
2 03/12/2017 15:24:32 0.02, -89.51 -0.35, -87.95 177.64 80
3 03/14/2017 03:43:33 -0.02, -89.48 -0.69, -92.55 349.63 80
4 03/15/2017 03:20:13 -0.02, -89.48 0.42, -87.55 219.90 80
5 03/16/2017 15:39:05 0.02, -89.53 0.60, -92.11 294.91 80
6 03/17/2017 15:21:05 0.02, -89.54 -0.51, -87.12 275.01 80
7 03/19/2017 03:40:05 -0.02, -89.51 -0.53, -91.71 251.56 80
8 03/20/2017 03:16:46 -0.02, -89.52 0.58, -86.72 318.19 80
9 03/21/2017 15:35:38 0.01, -89.56 0.38, -91.29 196.58 80
10 03/22/2017 15:17:39 0.01, -89.57 -0.73, -86.30 373.53 80
11 03/24/2017 03:36:39 -0.01, -89.56 -0.31, -90.89 152.48 80




NCC Satellite Simultaneous Nadir Overpasses (SNOs) Prediction Service
